Weather History for KATS - March, 2013

Change the Weather History Date:

Friday, March 29, 2013

  Actual Average Record
Temperature  
Mean Temperature 62 °F -  
Max Temperature 80 °F 71 °F 91 °F (1963)
Min Temperature 44 °F 37 °F 20 °F (1987)
Degree Days  
Heating Degree Days 3    
Growing Degree Days 12 (Base 50)    
Moisture  
Dew Point 28 °F    
Average Humidity 33    
Maximum Humidity 93    
Minimum Humidity 12    
Precipitation  
Precipitation 0.00 in - - ()
Sea Level Pressure  
Sea Level Pressure 30.05 in    
Wind  
Wind Speed 6 mph (SSW)    
Max Wind Speed 30 mph    
Max Gust Speed 41 mph    
Visibility 10 miles    
Events      
Averages and records for this station are not official NWS values.
T = Trace of Precipitation, MM = Missing Value Source: NWS Daily Summary

Daily Weather History Graph

Daily Weather History Graph

Search for Another Location

Airport or City:

Trip Planner

Search our weather history database for the weather conditions in past years. The results will help you decide how hot, cold, wet, or windy it might be!

Date:

Astronomy

Mar. 29, 2013 Rise Set
Actual Time 6:49 AM MDT 7:16 PM MDT
Civil Twilight 6:24 AM MDT 7:40 PM MDT
Nautical Twilight 5:55 AM MDT 8:09 PM MDT
Astronomical Twilight 5:26 AM MDT 8:39 PM MDT
Moon 10:07 PM MDT (3/29) 8:09 AM MDT (3/29)
Length of Visible Light 13h 16m
Length of Day
12h 26m
Waning Gibbous, 93% of the Moon is Illuminated
Mar 29
Waning Gibbous
Apr 2
Last Quarter
Apr 10
New
Apr 18
First Quarter
Apr 25
Full

Hourly Weather History & Observations

Time (MDT) Temp. Windchill Dew Point Humidity Pressure Visibility Wind Dir Wind Speed Gust Speed Precip Events Conditions
12:15 AM 59.0 °F - 19.4 °F 22% 30.06 in 10.0 mi NNW 3.5 mph - N/A   Clear
12:35 AM 60.8 °F - 19.4 °F 20% 30.06 in 10.0 mi ESE 6.9 mph - N/A   Clear
12:55 AM 60.8 °F - 19.4 °F 20% 30.06 in 10.0 mi SE 3.5 mph - N/A   Clear
1:15 AM 55.4 °F - 17.6 °F 23% 30.06 in 10.0 mi Calm Calm - N/A   Clear
1:35 AM 51.8 °F - 15.8 °F 24% 30.06 in 10.0 mi SSW 9.2 mph - N/A   Clear
1:55 AM 53.6 °F - 17.6 °F 24% 30.06 in 10.0 mi SSW 9.2 mph - N/A   Clear
2:15 AM 55.4 °F - 17.6 °F 23% 30.06 in 10.0 mi SSE 9.2 mph - N/A   Clear
2:35 AM 55.4 °F - 26.6 °F 33% 30.07 in 10.0 mi South 10.4 mph - N/A   Clear
2:55 AM 53.6 °F - 24.8 °F 33% 30.07 in 10.0 mi Calm Calm - N/A   Clear
3:15 AM 55.4 °F - 32.0 °F 41% 30.07 in 10.0 mi SW 5.8 mph - N/A   Clear
3:35 AM 53.6 °F - 37.4 °F 54% 30.07 in 10.0 mi SSW 8.1 mph - N/A   Clear
3:55 AM 51.8 °F - 39.2 °F 62% 30.07 in 10.0 mi South 8.1 mph - N/A   Clear
4:15 AM 50.0 °F - 39.2 °F 66% 30.06 in 10.0 mi SSE 4.6 mph - N/A   Clear
4:35 AM 50.0 °F - 41.0 °F 71% 30.06 in 10.0 mi SSE 6.9 mph - N/A   Clear
4:55 AM 48.2 °F - 41.0 °F 76% 30.06 in 10.0 mi SSE 6.9 mph - N/A   Partly Cloudy
5:15 AM 50.0 °F - 44.6 °F 82% 30.06 in 10.0 mi South 8.1 mph - N/A   Partly Cloudy
5:35 AM 48.2 °F - 44.6 °F 87% 30.07 in 10.0 mi South 8.1 mph - N/A   Partly Cloudy
5:55 AM 46.4 °F 42.4 °F 41.0 °F 81% 30.08 in 10.0 mi South 8.1 mph - N/A   Partly Cloudy
6:15 AM 46.4 °F 44.3 °F 41.0 °F 81% 30.08 in 10.0 mi SSW 4.6 mph - N/A   Clear
6:35 AM 46.4 °F 43.5 °F 44.6 °F 93% 30.08 in 9.0 mi SSW 5.8 mph - N/A   Clear
6:55 AM 44.6 °F 40.7 °F 41.0 °F 87% 30.09 in 8.0 mi WSW 6.9 mph - N/A   Clear
7:15 AM 44.6 °F 41.4 °F 35.6 °F 71% 30.09 in 10.0 mi WSW 5.8 mph - N/A   Clear
8:15 AM 50.0 °F - 23.0 °F 35% 30.11 in 10.0 mi Calm Calm - N/A   Clear
9:15 AM 59.0 °F - 23.0 °F 25% 30.12 in 10.0 mi Calm Calm - N/A   Clear
9:55 AM 60.8 °F - 37.4 °F 42% 30.12 in 10.0 mi ESE 3.5 mph - N/A   Clear
10:35 AM 62.6 °F - 39.2 °F 42% 30.12 in 10.0 mi Calm Calm - N/A   Clear
10:55 AM 64.4 °F - 39.2 °F 40% 30.12 in 10.0 mi ENE 4.6 mph - N/A   Clear
11:15 AM 64.4 °F - 41.0 °F 42% 30.11 in 10.0 mi ENE 6.9 mph - N/A   Clear
11:35 AM 66.2 °F - 41.0 °F 40% 30.12 in 10.0 mi Calm Calm - N/A   Clear
11:55 AM 68.0 °F - 39.2 °F 35% 30.10 in 10.0 mi ESE 4.6 mph - N/A   Clear
12:15 PM 69.8 °F - 37.4 °F 31% 30.10 in 10.0 mi Calm Calm - N/A   Clear
12:35 PM 71.6 °F - 35.6 °F 27% 30.09 in 10.0 mi East 5.8 mph - N/A   Clear
12:55 PM 73.4 °F - 35.6 °F 25% 30.08 in 10.0 mi East 5.8 mph - N/A   Clear
1:15 PM 77.0 °F - 32.0 °F 19% 30.07 in 10.0 mi NNE 4.6 mph - N/A   Clear
1:35 PM 77.0 °F - 32.0 °F 19% 30.07 in 10.0 mi NNW 5.8 mph - N/A   Clear
1:55 PM 78.8 °F - 28.4 °F 16% 30.06 in 10.0 mi ENE 3.5 mph - N/A   Clear
2:15 PM 78.8 °F - 26.6 °F 15% 30.04 in 10.0 mi Calm Calm - N/A   Clear
2:35 PM 78.8 °F - 23.0 °F 13% 30.03 in 10.0 mi SSW 3.5 mph - N/A   Clear
2:55 PM 80.6 °F - 23.0 °F 12% 30.02 in 10.0 mi NNE 4.6 mph - N/A   Clear
3:15 PM 80.6 °F - 23.0 °F 12% 30.02 in 10.0 mi NNW 4.6 mph - N/A   Clear
3:35 PM 80.6 °F - 23.0 °F 12% 30.01 in 10.0 mi NNW 9.2 mph - N/A   Clear
3:55 PM 80.6 °F - 23.0 °F 12% 30.01 in 10.0 mi NW 8.1 mph - N/A   Clear
4:15 PM 80.6 °F - 24.8 °F 13% 30.01 in 7.0 mi NW 29.9 mph 41.4 mph N/A   Clear
4:35 PM 77.0 °F - 24.8 °F 14% 30.03 in 10.0 mi WSW 11.5 mph 27.6 mph N/A   Clear
4:55 PM 78.8 °F - 26.6 °F 15% 30.02 in 10.0 mi SSW 8.1 mph - N/A   Clear
5:15 PM 77.0 °F - 24.8 °F 14% 30.00 in 10.0 mi ESE 5.8 mph - N/A   Clear
5:35 PM 77.0 °F - 24.8 °F 14% 30.00 in 10.0 mi SE 3.5 mph - N/A   Clear
5:55 PM 77.0 °F - 26.6 °F 16% 29.99 in 10.0 mi SE 9.2 mph - N/A   Clear
6:15 PM 75.2 °F - 24.8 °F 15% 29.99 in 10.0 mi SE 8.1 mph - N/A   Clear
6:35 PM 73.4 °F - 26.6 °F 18% 30.00 in 10.0 mi SSE 6.9 mph - N/A   Clear
6:55 PM 71.6 °F - 24.8 °F 17% 30.00 in 10.0 mi South 4.6 mph - N/A   Clear
7:15 PM 71.6 °F - 24.8 °F 17% 30.00 in 10.0 mi South 4.6 mph - N/A   Clear
7:35 PM 69.8 °F - 24.8 °F 18% 30.00 in 10.0 mi South 3.5 mph - N/A   Clear
7:55 PM 66.2 °F - 23.0 °F 19% 30.00 in 10.0 mi West 3.5 mph - N/A   Clear
8:15 PM 66.2 °F - 23.0 °F 19% 30.01 in 10.0 mi WSW 6.9 mph - N/A   Clear
8:35 PM 62.6 °F - 21.2 °F 20% 30.02 in 10.0 mi West 8.1 mph - N/A   Clear
8:55 PM 60.8 °F - 19.4 °F 20% 30.02 in 10.0 mi West 6.9 mph - N/A   Clear
9:15 PM 60.8 °F - 19.4 °F 20% 30.03 in 10.0 mi West 9.2 mph - N/A   Clear
9:35 PM 60.8 °F - 21.2 °F 22% 30.03 in 10.0 mi West 9.2 mph - N/A   Clear
9:55 PM 59.0 °F - 19.4 °F 22% 30.04 in 10.0 mi WNW 8.1 mph - N/A   Clear
10:15 PM 57.2 °F - 19.4 °F 23% 30.05 in 10.0 mi West 9.2 mph - N/A   Clear
10:35 PM 55.4 °F - 19.4 °F 25% 30.05 in 10.0 mi West 12.7 mph - N/A   Clear
10:55 PM 55.4 °F - 19.4 °F 25% 30.05 in 10.0 mi West 10.4 mph - N/A   Clear
11:15 PM 55.4 °F - 19.4 °F 25% 30.05 in 10.0 mi West 11.5 mph - N/A   Clear
11:35 PM 57.2 °F - 19.4 °F 23% 30.05 in 10.0 mi West 11.5 mph - N/A   Clear
11:55 PM 55.4 °F - 17.6 °F 23% 30.05 in 10.0 mi West 6.9 mph - N/A   Clear